User: anonymous   Login
Location: Charleston
(38.3500°N, 81.6330°W)
Time: 16:48:40
(UTC-04:00)
Language:

Cosmos 1812 Rocket - Orbit

View from above orbital plane
View from above orbital plane
View from above satellite
View from above satellite

Ground track
Ground track

The orbit data is extracted from the following two-line orbital elements,

1 17296U 87003B   15087.54229350  .00000782  00000-0  93313-4 0  9994
2 17296 082.5286 063.7499 0019789 020.7191 118.2731 14.82906379522821
Epoch (UTC): 28 March 2015 13:00:54
Eccentricity: 0.0019789
inclination: 82.5286°
perigee height: 606 km
apogee height: 634 km
right ascension of ascending node: 63.7499°
argument of perigee: 20.7191°
revolutions per day: 14.82906379
mean anomaly at epoch: 118.2731°
orbit number at epoch: 52282

The dashed part of the orbit path shows where the satellite is in the earth's shadow,  

DLR